This is the latest recevied weather packets stored in our database for station/object WG7B. If no packets are shown the sender has not sent any weather packets the latest 10 day(s).
| Time | Temp. | Humidity | Pressure | Rain* | Wind** | Luminosity | Snow |
|---|---|---|---|---|---|---|---|
| 1777703754 | 23.89° C | 26% | 1009.2 hPa | 0 mm | - | - | - |
| 1777700123 | 24.44° C | 25% | 1008.7 hPa | 0 mm | - | - | - |
| 1777698328 | 23.89° C | 26% | 1008.6 hPa | 0 mm | - | - | - |
| 1777693528 | 26.11° C | 24% | 1007.9 hPa | 0 mm | - | - | - |
| 1777688119 | 28.89° C | 20% | 1007.2 hPa | 0 mm | - | - | - |
| 1777686929 | 29.44° C | 20% | 1007.1 hPa | 0 mm | - | - | - |
| 1777685134 | 30.56° C | 20% | 1007.1 hPa | 0 mm | - | - | - |
| 1777677934 | 31.67° C | 20% | 1007.3 hPa | 0 mm | - | - | - |
| 1777669523 | 31.11° C | 23% | 1008.9 hPa | 0 mm | - | - | - |
| 1777666519 | 31.11° C | 23% | 1009.6 hPa | 0 mm | - | - | - |
| 1777665329 | 31.11° C | 23% | 1009.6 hPa | 0 mm | - | - | - |
| 1777659925 | 29.44° C | 26% | 1011.3 hPa | 0 mm | - | - | - |
| 1777658715 | 29.44° C | 26% | 1011.6 hPa | 0 mm | - | - | - |
| 1777657526 | 28.89° C | 28% | 1011.7 hPa | 0 mm | - | - | - |
| 1777653918 | 26.67° C | 32% | 1012 hPa | 0 mm | - | - | - |
| 1777646720 | 22.22° C | 40% | 1010.8 hPa | 0 mm | - | - | - |
| 1777645530 | 21.11° C | 41% | 1010.9 hPa | 0 mm | - | - | - |
| 1777631727 | 20.56° C | 35% | 1008 hPa | 0 mm | - | - | - |
| 1777630519 | 21.11° C | 34% | 1008.1 hPa | 0 mm | - | - | - |
| 1777625727 | 22.78° C | 30% | 1007.7 hPa | 0 mm | - | - | - |
| 1777625123 | 22.78° C | 30% | 1007.6 hPa | 0 mm | - | - | - |
| 1777620929 | 23.89° C | 28% | 1007.8 hPa | 0 mm | - | - | - |
| 1777611327 | 27.22° C | 19% | 1005.6 hPa | 0 mm | - | - | - |
| 1777608322 | 27.78° C | 19% | 1004.5 hPa | 0 mm | - | - | - |
| 1777607717 | 28.33° C | 17% | 1004.2 hPa | 0 mm | - | - | - |
* Rain latest hour (hover to see other rain measurements)
** Current wind speed in m/s (hover to see current wind gust speed)